Theta_e
304 306 307 308 307 305 304 304 302 301 301 302 301 302 302 300 300 304 303 302 302 300 302 302 302 302 302 301 300 296 298 299 302 301 302 300 301 300 300 301 300 297 298 298 298
308 310 311 312 312 310 307 305 303 301 301 302 302 302 303 302 302 306 304 300 300 300 301 301 302 302 301 302 300 298 298 300 301 300 300 300 300 300 300 300 300 298 296 297 297
308 310 312 312 312 311 311 308 303 302 301 301 302 302 304 302 305 307 301 300 300 301 301 301 301 302 303 302 302 300 300 302 301 300 300 300 299 299 299 298 297 297 296 295 295
309 311 312 312 312 313 311 305 302 301 300 301 302 302 303 304 306 302 300 301 301 301 301 302 301 302 303 303 302 302 300 301 301 302 299 300 299 299 296 297 298 295 295 294 294
309 310 311 312 313 313 307 301 301 300 300 301 302 302 304 303 302 301 300 301 302 301 301 301 302 302 304 302 301 301 301 301 300 299 298 298 298 298 297 295 296 295 295 294 293
312 312 312 312 313 313 307 302 300 299 301 301 302 303 304 301 301 300 301 301 302 301 301 301 301 300 301 301 301 301 301 300 300 300 299 299 299 298 298 295 294 295 294 293 293
315 313 313 313 313 313 309 303 300 300 301 302 302 304 305 301 300 300 300 300 301 302 301 301 301 301 301 301 301 301 300 300 300 299 300 299 300 298 297 295 296 293 293 293 293
314 315 314 314 313 313 309 304 301 300 301 302 303 306 298 300 300 300 301 301 301 301 301 301 301 301 301 301 301 302 301 302 302 300 299 300 301 300 296 294 295 293 292 292 292
315 314 314 313 315 313 308 304 301 300 301 302 303 302 299 299 299 300 300 301 301 301 301 301 301 300 300 299 298 302 300 302 304 300 299 299 300 300 296 294 295 293 292 291 291
314 313 312 312 314 313 306 303 301 303 301 301 301 301 300 299 299 300 299 300 300 300 301 301 299 299 298 299 300 300 303 303 304 300 300 299 298 299 298 295 295 293 292 291 290
309 310 310 311 314 310 303 303 303 303 301 303 301 299 299 299 299 299 299 300 299 300 300 301 301 300 299 300 301 302 302 302 300 299 299 299 298 299 298 295 295 293 291 290 289
307 308 308 310 313 307 303 299 299 300 305 302 299 298 298 298 298 299 299 299 300 300 300 300 301 301 302 301 302 301 302 302 300 299 298 298 297 298 295 295 295 293 292 291 287
305 307 308 312 312 305 301 300 301 302 304 304 297 298 298 298 298 299 299 299 300 301 300 300 302 302 302 301 301 301 301 300 300 298 296 296 296 295 296 295 294 292 290 288 286
303 305 308 311 309 304 301 301 301 302 304 306 298 298 298 298 298 298 298 299 300 301 300 300 301 301 302 302 301 301 300 299 299 297 298 297 298 298 297 296 295 293 288 286 285
304 304 308 309 308 304 301 301 301 302 309 302 298 297 297 298 297 298 297 298 298 300 298 299 301 302 301 302 300 299 298 298 298 295 293 297 292 297 295 298 297 293 289 285 284
304 305 308 309 306 302 301 301 302 305 306 302 297 299 299 298 298 298 299 297 298 298 298 299 299 299 299 299 299 297 300 298 297 295 295 294 295 300 295 293 295 291 289 286 286
303 305 307 308 304 303 302 303 304 309 304 307 302 299 298 298 300 300 301 300 301 308 303 303 301 298 298 300 298 300 300 300 297 294 300 295 296 300 292 290 288 287 287 283 284
305 305 306 306 303 303 305 303 307 296 299 303 301 304 302 301 302 303 303 305 303 304 305 303 305 300 299 301 301 300 298 301 295 296 296 296 296 298 289 282 277 279 277 283 284
304 304 304 302 303 303 301 297 296 297 306 307 306 305 307 302 301 302 303 302 301 302 305 303 304 297 297 297 297 300 303 294 289 285 293 291 293 294 293 287 282 283 286 285 283
305 303 302 302 304 305 304 301 299 304 304 305 306 308 310 304 302 302 303 301 300 300 299 302 304 299 297 296 295 298 296 296 293 295 293 295 291 294 290 289 286 284 286 283 282
305 302 301 301 303 305 304 293 305 301 302 304 306 308 306 305 303 299 303 302 300 301 300 299 300 302 299 297 299 297 296 296 294 290 291 292 296 287 288 284 286 286 285 280 279
305 302 299 301 304 301 306 304 302 301 299 302 300 302 301 299 300 302 301 303 299 299 302 300 301 302 304 295 293 294 290 291 293 291 283 288 297 281 281 276 276 284 285 279 278
304 301 299 301 300 301 301 301 300 301 301 300 302 300 295 298 302 298 303 299 298 299 300 299 302 304 305 298 295 294 292 289 287 287 290 294 297 278 274 280 283 282 279 278 278
299 300 299 299 299 296 297 298 303 300 301 301 303 301 298 294 294 300 301 299 298 299 300 299 300 302 307 304 294 290 289 291 292 286 285 291 292 298 292 284 287 280 277 272 271
302 292 290 294 300 301 298 301 302 303 300 300 301 300 298 299 298 300 297 299 299 299 300 298 300 300 300 301 297 292 293 291 293 287 295 288 286 292 291 288 283 272 272 273 273
302 295 296 298 299 301 302 301 303 303 301 301 300 298 300 301 300 299 297 298 298 298 298 296 298 298 299 296 288 289 288 290 293 283 285 289 294 292 278 267 274 278 271 273 271
301 299 298 299 300 300 301 301 301 299 301 302 299 302 301 300 296 295 295 296 296 296 298 297 297 299 301 294 294 294 288 284 283 278 290 290 292 270 283 279 277 279 271 275 273
Wind_Speed
8 9 10 11 12 12 12 13 12 10 9 8 7 6 6 7 8 5 2 4 5 7 6 6 3 2 1 3 3 3 3 3 4 6 3 2 4 2 1 2 2 2 1 4 15
8 9 10 11 12 13 13 14 14 11 9 9 8 6 7 7 7 3 2 6 5 4 2 6 3 5 3 2 2 4 3 8 3 3 3 4 2 3 1 4 4 1 1 7 10
8 9 11 12 12 13 15 16 14 12 11 9 8 7 6 6 3 1 1 4 3 3 2 2 1 2 1 1 2 3 5 3 3 3 4 2 2 2 3 6 9 9 8 7 7
7 8 10 12 12 14 17 16 13 13 12 9 6 5 4 3 4 1 3 2 2 2 2 2 1 3 2 3 2 2 5 3 2 3 3 3 2 4 8 7 1 8 9 8 7
7 8 9 11 13 15 17 15 14 13 10 8 3 2 1 2 4 1 3 2 1 1 2 1 2 2 3 2 1 3 2 2 2 3 5 2 7 7 9 9 3 5 8 10 8
8 9 9 11 13 15 16 16 13 10 7 4 1 1 1 2 2 4 3 3 2 1 2 2 3 2 2 2 4 2 3 6 6 5 4 5 3 3 4 2 7 7 9 8 9
9 10 11 12 13 14 16 15 11 6 4 0 2 1 1 5 1 4 4 2 4 2 1 2 1 2 3 1 0 1 6 6 6 4 5 3 7 10 4 3 6 9 8 8 8
11 12 13 13 14 15 15 14 7 4 2 2 2 2 3 1 2 2 1 2 2 3 2 1 2 2 1 0 2 1 1 4 1 5 1 2 8 4 4 7 10 9 8 8 6
11 12 13 15 14 15 15 12 3 2 2 2 1 1 5 1 1 1 1 1 2 2 2 1 2 1 2 3 4 2 4 4 6 4 3 4 7 7 5 6 10 9 9 8 5
9 13 14 15 13 14 14 5 0 2 3 2 0 1 1 1 1 1 1 1 1 2 3 2 4 1 2 3 5 5 4 4 5 1 1 6 16 20 9 8 13 10 9 8 7
10 11 14 15 10 11 9 0 3 2 2 3 1 2 1 1 2 1 1 1 1 3 2 1 1 7 9 7 0 1 3 5 2 2 2 9 12 21 12 8 10 9 8 9 8
11 12 14 14 7 7 4 4 2 0 4 1 2 1 1 1 2 2 1 1 1 3 2 2 8 5 5 4 4 3 3 5 4 3 2 6 15 22 9 5 4 6 8 8 5
13 11 11 11 6 2 8 4 2 2 0 3 0 0 0 1 2 1 1 1 3 2 5 6 1 3 3 2 3 4 4 2 4 5 1 7 8 5 3 2 2 2 1 4 8
16 13 7 7 2 2 3 3 2 1 4 2 0 1 1 1 1 1 2 1 2 3 3 6 3 4 2 4 6 2 2 3 0 4 3 4 6 7 3 6 4 5 4 5 6
18 14 4 0 1 2 2 1 1 1 4 1 1 0 0 1 2 2 2 2 3 2 5 5 2 3 3 4 4 5 1 3 3 3 4 1 2 8 5 6 4 6 7 7 5
16 4 5 3 2 4 1 2 1 5 6 1 1 1 2 2 1 2 1 1 0 2 3 7 3 1 3 2 3 5 3 4 4 2 2 2 3 6 3 5 3 1 4 6 5
11 3 4 3 3 1 1 2 4 3 3 2 2 1 2 3 1 2 2 2 2 4 3 2 2 2 5 1 3 4 3 3 4 2 5 2 1 10 6 5 5 5 6 4 5
9 5 3 3 2 2 2 4 3 3 4 1 1 3 1 2 1 3 2 2 1 0 2 1 4 3 2 2 3 4 4 4 6 2 4 1 6 6 6 4 5 4 4 6 6
5 1 1 2 1 2 4 3 7 5 1 2 2 0 1 2 0 3 2 1 2 4 2 2 4 2 3 1 2 1 3 2 6 1 3 2 7 9 3 4 4 7 5 8 6
6 1 2 2 4 2 3 5 1 2 1 1 1 1 1 2 3 2 2 1 3 2 2 1 5 2 1 1 3 2 2 2 2 0 4 4 5 5 5 4 4 6 7 7 4
3 1 1 1 2 2 3 6 3 3 1 1 1 1 3 1 1 2 2 1 1 1 2 3 2 1 1 3 3 2 2 2 3 3 4 2 7 7 7 6 6 8 6 6 5
3 2 1 2 2 1 3 4 2 2 2 1 0 0 3 1 2 2 3 2 2 2 2 2 3 4 4 3 2 2 4 3 4 4 1 3 7 3 5 4 3 10 8 4 3
1 2 2 1 3 3 2 3 2 3 2 2 3 3 2 2 2 3 2 3 4 2 2 2 3 3 2 2 1 3 3 3 4 3 5 4 6 1 3 6 7 9 6 4 3
1 2 2 1 1 5 3 4 4 1 1 3 1 2 2 1 2 3 2 1 4 2 3 1 3 5 2 1 2 1 2 3 3 3 4 7 10 15 9 7 9 6 5 5 5
2 4 4 3 4 3 2 1 6 3 2 2 1 4 5 1 2 4 3 3 2 2 2 2 4 4 8 10 5 6 8 8 9 6 7 4 7 13 12 9 7 5 6 6 6
2 3 1 1 3 5 6 4 5 3 5 2 3 3 5 4 5 3 3 3 3 1 3 2 3 2 5 3 2 6 8 11 14 3 10 10 23 14 5 4 5 7 5 6 6
3 2 2 2 4 3 4 5 5 6 3 2 6 2 4 3 1 2 3 3 2 2 2 2 2 3 4 1 6 6 7 7 4 2 8 6 11 3 5 6 5 6 5 7 7
Wind_Direction
29 23 25 17 12 5 360 354 351 349 344 334 323 305 295 291 309 313 309 329 328 331 332 331 66 39 44 73 71 134 72 222 246 169 193 178 168 199 294 193 203 355 157 141 148
24 18 18 16 9 0 354 348 344 337 334 325 317 310 304 311 316 266 232 336 345 348 24 35 24 358 43 70 30 96 143 217 215 178 183 174 198 189 181 212 234 183 305 157 164
18 14 12 12 7 3 352 343 340 334 329 319 309 310 314 323 315 215 337 348 5 17 40 34 3 7 72 108 177 163 206 221 233 171 153 183 270 227 196 242 220 208 185 192 187
12 10 8 5 5 360 351 344 339 330 323 316 296 300 316 333 308 114 357 10 23 344 4 63 72 109 150 227 179 209 234 237 228 173 140 201 177 263 206 226 172 203 181 171 190
358 358 358 357 355 354 353 347 337 329 319 313 272 284 349 340 276 348 346 6 336 1 61 96 139 137 193 214 191 218 266 267 190 186 242 172 227 232 251 240 237 202 159 182 196
346 344 347 346 346 347 349 346 342 333 323 311 240 205 80 278 82 1 358 338 21 75 51 57 162 159 172 209 182 325 296 274 271 233 232 202 252 127 264 204 211 196 205 204 197
338 336 336 338 339 341 344 346 343 347 347 101 154 143 86 240 354 356 349 23 20 10 79 60 80 163 143 202 56 346 314 309 231 215 214 178 273 229 186 153 220 222 223 221 219
322 324 328 330 333 337 339 339 339 3 47 135 150 139 237 273 260 334 317 3 27 11 55 78 14 108 145 133 18 339 86 331 95 145 196 152 264 260 169 171 229 227 239 235 220
303 306 317 324 326 333 333 335 333 84 109 135 134 116 285 175 244 273 308 310 335 350 16 344 24 96 46 100 352 356 247 214 313 186 132 193 268 260 160 195 242 237 237 230 204
311 310 314 318 317 329 333 332 71 127 135 160 250 359 335 239 224 285 5 225 99 353 7 63 48 95 64 127 225 202 222 239 243 337 241 259 260 273 256 222 246 242 234 227 206
324 319 322 324 315 333 340 321 15 348 63 227 156 265 171 210 203 247 351 72 73 82 221 318 64 224 218 209 36 110 217 243 242 358 299 252 271 275 280 244 259 253 238 228 211
322 322 325 326 324 341 346 72 78 246 313 305 256 270 48 127 322 262 281 166 142 227 140 30 239 226 227 189 213 213 253 263 277 155 248 307 289 279 279 247 226 266 246 229 158
310 313 321 335 330 30 76 82 89 1 112 313 303 264 309 105 254 274 59 103 212 244 199 192 215 110 169 168 187 219 206 226 238 313 172 321 289 321 287 266 253 307 294 134 176
322 301 320 339 162 82 64 95 118 115 55 238 179 4 39 91 270 5 46 88 281 254 238 241 271 192 206 242 165 257 112 109 276 39 266 34 282 300 315 292 235 222 166 169 183
317 293 268 344 127 100 106 83 189 195 356 213 174 257 101 188 313 26 8 83 219 277 84 263 176 184 188 225 159 215 109 109 99 93 32 17 67 271 6 296 273 234 210 214 220
343 280 181 167 126 120 91 184 196 44 252 126 143 231 24 127 35 4 37 359 70 301 219 245 317 261 224 61 104 137 83 66 56 85 352 250 135 272 219 215 293 256 222 212 239
346 10 152 165 136 162 151 105 36 168 313 271 193 84 64 311 8 32 3 314 248 326 347 288 195 74 21 34 42 64 56 321 339 8 224 256 6 251 263 236 222 246 230 236 283
345 346 113 126 135 102 130 61 161 239 237 349 222 329 184 35 26 339 334 299 97 9 299 25 302 12 72 91 310 177 171 165 219 229 278 25 237 253 217 246 243 267 274 291 276
326 294 251 17 347 147 82 84 207 211 321 350 64 102 340 58 117 348 223 257 102 183 193 310 270 92 66 120 261 111 217 129 103 56 35 246 281 290 256 307 308 275 260 268 293
328 223 235 285 251 142 88 244 213 44 302 273 154 81 292 284 5 6 230 243 161 85 134 271 287 55 77 248 105 222 160 55 11 50 301 282 279 242 307 284 307 298 291 293 290
238 172 286 309 130 59 191 223 225 91 324 207 211 177 222 284 234 262 259 343 186 85 354 151 213 186 205 183 165 181 267 63 113 112 169 288 273 214 214 217 249 274 291 280 282
252 245 14 144 118 258 192 185 131 154 65 256 94 91 188 171 268 258 242 223 162 161 191 184 237 265 238 144 176 239 201 157 122 266 93 145 272 209 224 237 231 279 296 274 247
239 163 65 71 172 224 138 166 167 150 160 215 198 176 136 176 271 229 269 140 167 202 176 155 225 288 210 143 171 220 193 141 115 86 205 141 261 303 292 293 267 273 294 292 280
105 200 352 53 236 141 165 233 197 106 160 198 181 112 99 359 259 295 292 178 181 210 188 169 246 243 258 204 111 207 221 178 134 130 188 232 288 287 298 300 318 305 286 280 281
213 226 190 205 237 187 141 211 205 196 219 180 191 208 166 214 262 251 263 288 203 236 204 229 257 226 262 266 225 224 222 191 203 195 205 258 227 276 287 285 284 288 288 294 285
196 147 83 264 123 140 185 208 190 178 167 168 216 269 186 215 205 238 198 206 253 187 202 184 277 287 275 283 191 259 221 218 226 224 275 288 286 286 299 297 286 271 264 272 263
240 193 145 169 142 144 204 178 213 148 236 135 200 199 225 249 16 325 293 292 265 215 228 209 281 330 268 262 283 293 226 176 193 222 187 195 233 350 301 299 266 283 220 253 253